[[{"header":{"parameterUnit":"m.s-1","parameterCategory":1,"la1":30.2991,"la2":30.254,"lo1":-89.0895,"lo2":-89.0444,"dy":0.0017,"dx":0.0017,"nx":28,"ny":28,"refTime":"2024-08-23T09:00:00:Z","depth":0,"parameterNumber":2,"parameterNumberName":"U-component_of_WINDS"},"data":[0,0,0,0,0,0,0,0,0,0,0,0,0,0,0,0,0,0,0,0,0,0,0,0,0,0,0,0,0,0,0,0,0,0,0,0,0,0,0,0,0,0,0,0,0,0,0,0,0,0,0,0,0,0,0,0,0,0,-5.225,-5.225,0,-5.2229,-5.2229,-5.2228,-5.2019,-5.2014,-5.2008,-5.2003,-5.1984,-5.1988,-5.1992,0,0,0,0,0,0,0,0,0,0,0,0,0,-5.211,-5.2114,-5.225,-5.225,-5.2249,-5.2229,-5.2229,-5.2228,-5.202,-5.2013,-5.2007,-5.2001,-5.1982,-5.1988,-5.1993,0,0,0,0,0,0,0,0,0,0,0,0,0,-5.2139,-5.2115,-5.225,-5.2143,-5.2133,-5.2229,-5.2229,-5.2228,-5.2021,-5.2013,-5.2005,-5.1998,-5.1981,-5.1987,-5.1994,-5.2191,0,0,-5.2014,-5.2016,0,0,0,0,0,0,0,0,-5.2137,-5.2144,-5.2159,-5.215,-5.214,-5.2118,-5.2172,-5.2216,-5.2023,-5.2064,-5.2003,-5.1994,-5.2035,-5.2037,-5.205,-5.219,-5.2189,-5.2014,-5.2018,-5.2021,-5.2023,0,0,0,0,0,0,0,-5.2135,-5.2144,-5.2241,-5.2159,-5.2148,-5.2096,-5.2091,-5.2179,-5.2094,-5.206,-5.2044,-5.2045,-5.2028,-5.2044,-5.2048,-5.2189,-5.2014,-5.202,-5.2024,-5.2026,-5.2488,-5.2496,0,0,0,0,0,0,-5.2148,-5.2143,-5.2242,-5.2241,-5.2119,-5.2105,-5.21,-5.2133,-5.2092,-5.2078,-5.2051,-5.2035,-5.2037,-5.2041,-5.2047,-5.2273,-5.2021,-5.2027,-5.2031,-5.248,-5.249,-5.2499,0,0,0,0,0,0,-5.2146,-5.2159,-5.2243,-5.2188,-5.2195,-5.2116,-5.2155,-5.2137,-5.2152,-5.2086,-5.207,-5.2083,-5.2031,-5.2037,-5.2156,-5.227,-5.203,-5.2036,-5.247,-5.2483,-5.2495,-5.2731,0,0,0,0,0,0,-5.2143,-5.216,-5.2234,-5.2191,-5.2198,-5.2354,-5.2162,-5.2142,-5.2164,-5.2142,-5.2112,-5.2099,-5.2025,-5.2148,-5.2163,-5.2275,-5.2041,-5.246,-5.2476,-5.2491,-5.2712,-5.275,-5.2782,0,0,0,0,0,-5.2139,-5.2302,-5.2239,-5.2252,-5.229,-5.2361,-5.2365,-5.2276,-5.2174,-5.2248,-5.2205,-5.21,-5.2256,-5.2161,-5.2177,-5.2293,-5.2452,-5.2471,-5.249,-5.2697,-5.2742,-5.2781,0,0,0,0,0,0,-5.2361,-5.2294,-5.2223,-5.2378,-5.2376,-5.2325,-5.2415,-5.2327,-5.2355,-5.2334,-5.2223,-5.2218,-5.2354,-5.2335,-5.2231,-5.2481,-5.2335,-5.2358,-5.2488,-5.2531,-5.2565,-5.2566,-5.2046,0,0,0,0,0,-5.2428,-5.2491,-5.2429,-5.2571,-5.2574,-5.2496,-5.2523,-5.2455,-5.2449,-5.2448,-5.2413,-5.2412,-5.246,-5.2494,-5.2535,-5.2709,-5.2699,-5.2796,-5.2831,-5.2859,-5.288,-5.2969,-5.3011,-5.2561,-5.2561,-5.256,0,0,-5.2567,-5.2538,-5.2585,-5.2615,-5.2606,-5.2673,-5.2497,-5.2576,-5.2625,-5.246,-5.2569,-5.2545,-5.2536,-5.2683,-5.2746,-5.2671,-5.3002,-5.2883,-5.2907,-5.2912,-5.2993,-5.3036,-5.3074,-5.2574,-5.2571,-5.2569,0,0,-5.2854,-5.284,-5.2955,-5.2949,-5.2937,-5.2883,-5.2912,-5.2874,-5.2851,-5.2958,-5.2836,-5.2893,-5.2978,-5.2977,-5.2987,-5.3274,-5.3178,-5.329,-5.3471,-5.3559,-5.3595,-5.3625,-5.3726,-5.3764,-5.3311,-5.3312,-5.3312,0,-5.3029,-5.3125,-5.3026,-5.3113,-5.3129,-5.2983,-5.3098,-5.3098,-5.3101,-5.3116,-5.3032,-5.3136,-5.312,-5.3263,-5.3333,-5.3347,-5.3375,-5.3293,-5.3597,-5.3627,-5.3655,-5.375,-5.3788,-5.3325,-5.3324,-5.3322,-5.3321,0,-5.3339,-5.3408,-5.3503,-5.3507,-5.3535,-5.3637,-5.3553,-5.3593,-5.3522,-5.3478,-5.3589,-5.3565,-5.3597,-5.3626,-5.3559,-5.3761,-5.3715,-5.3617,-5.3468,-5.3713,-5.38,-5.3836,-5.3345,-5.334,-5.3336,-5.3333,0,0,-5.3766,-5.3714,-5.375,-5.375,-5.3725,-5.3776,-5.3871,-5.3902,-5.3938,-5.3945,-5.4021,-5.4096,-5.4004,-5.4017,-5.3948,-5.4026,-5.4252,-5.3917,-5.3915,-5.3979,-5.4472,-5.4545,-5.4589,-5.4189,-5.4195,-5.42,-5.4472,0,-5.4041,-5.4198,-5.4112,-5.4281,-5.4343,-5.4204,-5.4286,-5.428,-5.4241,-5.4288,-5.4245,-5.43,-5.4175,-5.4181,-5.4252,-5.421,-5.4349,-5.4189,-5.4258,-5.4262,-5.4263,-5.4634,-5.4712,-5.497,-5.4505,-5.4511,-5.4515,0,-5.4383,-5.4403,-5.4578,-5.454,-5.4563,-5.4639,-5.4659,-5.4706,-5.4696,-5.4662,-5.4676,-5.4588,-5.4678,-5.4532,-5.4654,-5.4547,-5.4571,-5.4554,-5.4562,-5.4564,-5.4403,-5.4646,-5.505,-5.5088,-5.4568,-5.4564,-5.456,0,-5.4675,-5.4746,-5.4859,-5.4863,-5.4823,-5.4879,-5.4864,-5.4847,-5.4871,-5.4889,-5.4903,-5.4933,-5.4949,-5.4975,-5.4897,-5.4798,-5.503,-5.4878,-5.5004,-5.5006,-5.5057,-5.5055,-5.547,-5.5076,-5.5075,-5.5074,-5.5074,0,-5.499,-5.5103,-5.4989,-5.5059,-5.518,-5.508,-5.5204,-5.5175,-5.516,-5.5222,-5.5105,-5.5165,-5.506,-5.511,-5.505,-5.516,-5.5169,-5.5143,-5.5126,-5.5153,-5.5156,-5.5166,-5.5146,-5.5084,-5.5082,-5.508,-5.5079,0,-5.5336,-5.5264,-5.5379,-5.533,-5.5321,-5.5413,-5.5371,-5.5434,-5.5387,-5.5467,-5.548,-5.5406,-5.5459,-5.5384,-5.543,-5.539,-5.554,-5.5496,-5.5543,-5.553,-5.566,-5.5648,-5.6094,-5.6147,-5.5721,-5.5725,-5.5729,0,-5.5541,-5.5624,-5.5584,-5.5617,-5.5609,-5.5663,-5.5686,-5.5591,-5.562,-5.5615,-5.5679,-5.5721,-5.575,-5.5842,-5.5793,-5.5827,-5.5782,-5.5936,-5.5786,-5.5811,-5.5783,-5.5778,-5.5785,-5.5967,-5.5972,-5.5976,-5.5979,0,-5.5912,-5.5873,-5.591,-5.5936,-5.5966,-5.5982,-5.5989,-5.6023,-5.5922,-5.5961,-5.6013,-5.6036,-5.6082,-5.6126,-5.6147,-5.6132,-5.604,-5.6027,-5.6057,-5.6086,-5.6109,-5.6097,-5.5625,-5.6017,-5.6013,-5.601,-5.6008,-5.6007,-5.6193,-5.6259,-5.6241,-5.6287,-5.6282,-5.6291,-5.6347,-5.6306,-5.6348,-5.6376,-5.6318,-5.6385,-5.6372,-5.6391,-5.6387,-5.6438,-5.6371,-5.6416,-5.6427,-5.6439,-5.6459,-5.6102,-5.6442,-5.6441,-5.644,-5.6439,-5.6438,0,-5.6556,-5.6538,-5.658,-5.6593,-5.6629,-5.6538,-5.6541,-5.6577,-5.6637,-5.6633,-5.6663,-5.6723,-5.6765,-5.672,-5.6753,-5.6802,-5.6761,-5.6814,-5.6809,-5.6807,-5.6518,-5.6487,-5.6847,-5.6847,-5.6847,-5.6847,-5.6847,-5.6847,-5.6749,-5.6857,-5.6815,-5.6919,-5.6899,-5.6962,-5.6972,-5.698,-5.6975,-5.7047,-5.7081,-5.705,-5.703,-5.7061,-5.7095,-5.7081,-5.7098,-5.7167,-5.7138,-5.6868,-5.6828,-5.6789,-5.676,-5.7172,-5.7172,-5.7422,-5.7424,-5.7426]},{"header":{"parameterUnit":"m.s-1","parameterCategory":1,"la1":30.2991,"la2":30.254,"lo1":-89.0895,"lo2":-89.0444,"dy":0.0017,"dx":0.0017,"nx":28,"ny":28,"refTime":"2024-08-23T09:00:00:Z","depth":0,"parameterNumber":3,"parameterNumberName":"V-component_of_WINDS"},"data":[0,0,0,0,0,0,0,0,0,0,0,0,0,0,0,0,0,0,0,0,0,0,0,0,0,0,0,0,0,0,0,0,0,0,0,0,0,0,0,0,0,0,0,0,0,0,0,0,0,0,0,0,0,0,0,0,0,0,-0.4313,-0.4313,0,-0.4373,-0.4373,-0.4374,-0.4442,-0.4443,-0.4444,-0.4445,-0.4506,-0.4507,-0.4507,0,0,0,0,0,0,0,0,0,0,0,0,0,-0.4253,-0.4254,-0.4312,-0.4313,-0.4314,-0.4373,-0.4373,-0.4374,-0.4442,-0.4443,-0.4445,-0.4446,-0.4506,-0.4506,-0.4507,0,0,0,0,0,0,0,0,0,0,0,0,0,-0.4293,-0.4254,-0.4312,-0.4355,-0.4359,-0.4372,-0.4373,-0.4374,-0.4442,-0.4444,-0.4445,-0.4446,-0.4505,-0.4506,-0.4507,-0.4483,0,0,-0.451,-0.4511,0,0,0,0,0,0,0,0,-0.429,-0.4295,-0.4348,-0.4352,-0.4357,-0.4402,-0.4375,-0.4411,-0.4442,-0.4411,-0.4445,-0.4447,-0.447,-0.4474,-0.4482,-0.4486,-0.4488,-0.451,-0.4511,-0.4512,-0.4512,0,0,0,0,0,0,0,-0.4288,-0.4293,-0.4336,-0.4349,-0.4354,-0.437,-0.4377,-0.4382,-0.4431,-0.4413,-0.4419,-0.4425,-0.4473,-0.4481,-0.4484,-0.4489,-0.451,-0.4511,-0.4512,-0.4512,-0.4473,-0.4472,0,0,0,0,0,0,-0.4279,-0.429,-0.4334,-0.4338,-0.4327,-0.437,-0.4378,-0.4386,-0.4431,-0.4439,-0.4423,-0.4428,-0.4478,-0.4482,-0.4486,-0.4459,-0.4512,-0.4512,-0.4513,-0.4475,-0.4473,-0.4471,0,0,0,0,0,0,-0.4277,-0.4282,-0.4332,-0.4315,-0.4323,-0.4369,-0.4377,-0.4386,-0.4394,-0.4439,-0.4447,-0.4423,-0.448,-0.4485,-0.4483,-0.4462,-0.4513,-0.4514,-0.4477,-0.4474,-0.4472,-0.4405,0,0,0,0,0,0,-0.4275,-0.4281,-0.4273,-0.4315,-0.4324,-0.4328,-0.4376,-0.4386,-0.4396,-0.4402,-0.444,-0.4448,-0.4481,-0.4481,-0.4484,-0.4464,-0.4515,-0.4479,-0.4476,-0.4473,-0.4409,-0.4401,-0.4393,0,0,0,0,0,-0.4273,-0.4252,-0.4273,-0.4278,-0.4315,-0.4327,-0.4332,-0.4371,-0.4394,-0.4386,-0.4414,-0.4447,-0.4464,-0.448,-0.4484,-0.4464,-0.448,-0.4477,-0.4473,-0.4413,-0.4402,-0.4393,0,0,0,0,0,0,-0.4208,-0.4259,-0.4282,-0.4274,-0.4296,-0.4339,-0.433,-0.4359,-0.4374,-0.4379,-0.4426,-0.4434,-0.4426,-0.4445,-0.4462,-0.4442,-0.4477,-0.4474,-0.443,-0.442,-0.4412,-0.4407,-0.4515,0,0,0,0,0,-0.4192,-0.4199,-0.4243,-0.4232,-0.4241,-0.4283,-0.429,-0.4318,-0.4342,-0.4351,-0.4379,-0.4401,-0.4411,-0.4416,-0.4428,-0.4412,-0.442,-0.44,-0.4392,-0.4385,-0.4382,-0.4373,-0.4364,-0.4459,-0.4459,-0.4459,0,0,-0.4161,-0.419,-0.4191,-0.4219,-0.4239,-0.4243,-0.4291,-0.4294,-0.4297,-0.4352,-0.4351,-0.4372,-0.4399,-0.4389,-0.4386,-0.4405,-0.4357,-0.4381,-0.4375,-0.4376,-0.4368,-0.4359,-0.4351,-0.4457,-0.4457,-0.4457,0,0,-0.4106,-0.4129,-0.4121,-0.4139,-0.4169,-0.4196,-0.4194,-0.4232,-0.4248,-0.4248,-0.4289,-0.4292,-0.4309,-0.4326,-0.4337,-0.4284,-0.4315,-0.4287,-0.4245,-0.4235,-0.4228,-0.4221,-0.4201,-0.4193,-0.4284,-0.4283,-0.4283,0,-0.4063,-0.4072,-0.4113,-0.4113,-0.4124,-0.4173,-0.4164,-0.418,-0.4211,-0.4217,-0.4237,-0.4257,-0.4279,-0.4273,-0.426,-0.4267,-0.4265,-0.4283,-0.4225,-0.4219,-0.4214,-0.4195,-0.4188,-0.428,-0.428,-0.428,-0.4281,0,-0.4017,-0.4022,-0.4012,-0.4041,-0.405,-0.4046,-0.4085,-0.4089,-0.4115,-0.414,-0.4138,-0.4165,-0.4182,-0.4183,-0.4209,-0.4179,-0.419,-0.4217,-0.4253,-0.42,-0.4184,-0.4177,-0.4274,-0.4276,-0.4277,-0.4278,0,0,-0.3924,-0.3974,-0.3969,-0.3982,-0.4016,-0.4021,-0.4017,-0.4034,-0.4035,-0.4055,-0.4052,-0.4064,-0.4088,-0.41,-0.4128,-0.412,-0.4074,-0.4148,-0.4149,-0.4132,-0.4041,-0.402,-0.4011,-0.4094,-0.4093,-0.4092,-0.4038,0,-0.3875,-0.3873,-0.3908,-0.3896,-0.39,-0.3945,-0.3942,-0.3962,-0.3984,-0.399,-0.4015,-0.4022,-0.4055,-0.4062,-0.4055,-0.4081,-0.4056,-0.4085,-0.4091,-0.4091,-0.4083,-0.4003,-0.3981,-0.3929,-0.4032,-0.4031,-0.403,0,-0.3818,-0.3832,-0.382,-0.3853,-0.3856,-0.3852,-0.3869,-0.3874,-0.3897,-0.3914,-0.3925,-0.3956,-0.3954,-0.3988,-0.3984,-0.4003,-0.4007,-0.4019,-0.4018,-0.402,-0.4057,-0.4001,-0.3914,-0.3905,-0.4021,-0.4022,-0.4022,0,-0.3749,-0.3766,-0.3761,-0.377,-0.3808,-0.3804,-0.382,-0.3844,-0.3851,-0.3865,-0.3869,-0.3883,-0.389,-0.3899,-0.3932,-0.3954,-0.3924,-0.3961,-0.3937,-0.3935,-0.3929,-0.3928,-0.3839,-0.3932,-0.3932,-0.3932,-0.3932,0,-0.369,-0.3681,-0.373,-0.3727,-0.3717,-0.3757,-0.3745,-0.3765,-0.3785,-0.3786,-0.3825,-0.3824,-0.3869,-0.3872,-0.3898,-0.389,-0.3893,-0.3905,-0.3912,-0.3901,-0.39,-0.3905,-0.3909,-0.393,-0.393,-0.3931,-0.3931,0,-0.3613,-0.3646,-0.3643,-0.3678,-0.3687,-0.3677,-0.3708,-0.3705,-0.3729,-0.3728,-0.373,-0.3767,-0.3773,-0.3807,-0.3821,-0.3838,-0.382,-0.3835,-0.3812,-0.3817,-0.379,-0.3792,-0.3701,-0.369,-0.379,-0.3789,-0.3788,0,-0.3573,-0.3567,-0.3601,-0.3603,-0.3617,-0.3621,-0.3628,-0.3666,-0.3671,-0.3694,-0.3688,-0.3697,-0.3706,-0.3713,-0.3741,-0.3751,-0.3765,-0.3733,-0.3767,-0.3756,-0.3763,-0.3763,-0.3762,-0.3725,-0.3724,-0.3723,-0.3722,0,-0.3498,-0.3514,-0.3522,-0.3535,-0.3541,-0.3553,-0.3568,-0.3567,-0.3609,-0.3613,-0.3619,-0.3626,-0.3639,-0.3646,-0.3661,-0.3676,-0.3705,-0.3711,-0.3705,-0.3694,-0.3681,-0.3687,-0.3791,-0.3713,-0.3714,-0.3714,-0.3715,-0.3715,-0.3438,-0.3433,-0.3455,-0.3462,-0.3477,-0.3489,-0.3487,-0.351,-0.3516,-0.3529,-0.3551,-0.3553,-0.3574,-0.3596,-0.3608,-0.361,-0.3627,-0.362,-0.3618,-0.3615,-0.3609,-0.3681,-0.3613,-0.3613,-0.3613,-0.3613,-0.3614,0,-0.3364,-0.338,-0.3385,-0.3404,-0.3408,-0.3435,-0.3452,-0.3453,-0.3455,-0.3471,-0.3479,-0.3484,-0.3491,-0.3518,-0.3528,-0.3524,-0.3537,-0.3525,-0.3525,-0.3528,-0.3594,-0.3597,-0.3514,-0.3514,-0.3514,-0.3514,-0.3514,-0.3514,-0.3326,-0.3318,-0.3336,-0.3336,-0.3352,-0.3355,-0.3361,-0.3372,-0.3385,-0.3389,-0.3395,-0.3412,-0.3432,-0.3443,-0.345,-0.3457,-0.3458,-0.3441,-0.3453,-0.3514,-0.3524,-0.3533,-0.3536,-0.3441,-0.3441,-0.3387,-0.3387,-0.3386]}]]